#timestamp,LO_Frequency,Hit,StdDev 
1661065215.1,286046998.7,N
1661065235.9,286046999.4,N
1661065255.7,286046999.5,N
1661065275.5,286046999.5,N
1661065295.4,286046999.0,N
1661065315.2,286046998.3,N
1661065335.0,286046999.1,N
1661065335.9,286046999.1,N
1661065355.8,286046998.8,N
1661065375.6,286046998.4,N
1661065395.5,286046998.4,N
1661065415.3,286047001.1,N
1661065435.1,286046998.1,N
1661065455.9,286046998.1,N
1661065475.7,286047001.0,N
1661065495.5,286047000.8,N
1661065515.4,286047000.5,N
1661065535.2,286047000.9,N
1661065555.1,286046998.5,N
1661065556.0,286046998.5,N
1661065575.8,286047001.2,N
1661065595.6,286047000.0,N
1661065615.5,286047002.8,N
1661065635.3,286047002.6,N
1661065655.2,286047004.4,Y
1661065675.9,286047002.1,P
1661065695.7,286047001.5,N
1661065715.6,286047002.0,N
1661065735.4,286047001.6,N
1661065755.2,286047002.2,N
1661065775.1,286047001.6,N
1661065776.0,286047001.6,N
1661065795.8,286047002.7,Y
1661065815.7,286047000.8,P
1661065835.5,286047000.5,N
1661065855.3,286047001.2,N
1661065875.2,286047000.2,N
1661065895.0,286047000.6,N
1661065895.9,286047000.6,N
1661065915.8,286047000.7,N
1661065935.6,286047000.6,N
1661065955.4,286047001.2,Y
1661065975.3,286046998.7,P
1661065995.1,286047000.7,N
1661066015.9,286047000.5,N
1661066035.7,286047001.0,N
1661066055.5,286047000.2,N
1661066075.4,286046999.8,N
1661066095.2,286047000.9,N
1661066115.0,286046998.4,N
1661066115.9,286046998.4,N
1661066135.8,286046998.3,N
1661066155.6,286046999.0,N
1661066175.5,286046999.2,N
1661066195.3,286046999.3,N
1661066215.1,286046999.5,N
1661066235.9,286046999.1,N
1661066255.7,286046999.5,N
1661066275.5,286046999.4,N
1661066295.4,286046999.3,N
1661066315.2,286046996.6,Y
1661066335.1,286046998.8,P
1661066336.0,286046998.8,P
1661066355.8,286046998.9,P
1661066375.6,286046999.4,N
1661066395.5,286046999.4,N
1661066415.3,286046999.0,Y
1661066435.2,286047001.0,P
1661066455.9,286047000.8,N
1661066475.7,286047000.0,N
1661066495.6,286047000.7,N
1661066515.4,286047001.2,N
1661066535.3,286046998.2,N
1661066555.1,286047000.5,N
1661066556.0,286047000.5,N
1661066575.8,286047001.1,N
1661066595.7,286046998.1,N
1661066615.5,286047000.8,N
1661066635.3,286047000.7,N
1661066655.2,286046998.5,N
1661066675.0,286046998.2,N
1661066675.9,286046998.2,N
1661066695.8,286046998.5,N
1661066715.6,286047000.8,N
1661066735.4,286047000.8,N
1661066755.3,286047001.0,N
1661066775.1,286047000.2,N
1661066795.8,286047000.1,N
1661066815.7,286046999.9,N
1661066835.5,286047000.2,N
1661066855.4,286047002.6,N
1661066875.2,286047000.3,N
1661066895.0,286047000.8,N
1661066895.9,286047000.8,N
1661066915.8,286047000.5,N
1661066935.6,286047000.4,N
1661066955.5,286047000.1,N
1661066975.3,286046999.7,N
1661066995.1,286047000.0,N
1661067015.9,286046999.9,N
1661067035.7,286047000.7,N
1661067055.6,286047000.9,N
1661067075.4,286047000.0,N
1661067095.2,286047000.2,N
1661067115.1,286047000.2,N
1661067116.0,286047000.2,N
1661067135.8,286046998.1,N
1661067155.7,286047000.6,N
1661067175.5,286047000.4,N
1661067195.3,286047002.8,N
1661067215.2,286047000.2,N
1661067235.0,286047001.5,N
1661067235.9,286047001.5,N
1661067255.7,286047002.5,N
1661067275.6,286046999.8,N
1661067295.4,286047002.0,N
1661067315.3,286047002.4,N
1661067335.1,286047002.3,N
1661067336.0,286047002.3,N
1661067355.8,286047001.6,N
1661067375.7,286047002.3,N
1661067395.5,286047000.6,N
1661067415.4,286046999.9,N
1661067435.2,286046999.8,N
1661067455.0,286047002.5,N
1661067455.9,286047002.5,N
1661067475.8,286047002.0,N
1661067495.6,286047002.5,N
1661067515.4,286046999.7,N
1661067535.3,286047000.3,N
1661067555.1,286047000.4,N
1661067575.9,286046999.9,N
1661067595.7,286047000.2,N
1661067615.5,286047000.0,N
1661067635.4,286047002.5,N
1661067685.2,286047002.1,E
1661067695.1,286047000.2,N
1661067715.9,286046996.5,P
1661067735.7,286046996.9,N
1661067755.6,286046999.0,N
1661067775.4,286046998.9,N
1661067795.2,286046999.2,N
1661067815.1,286046999.2,N
1661067816.0,286046999.2,N
1661067835.8,286046998.4,N
1661067855.6,286047001.2,N
1661067875.5,286047001.0,N
1661067895.3,286047001.1,N
1661067915.2,286047000.2,N
1661067935.9,286047000.0,N
1661067955.7,286047001.2,N
1661067975.6,286046998.3,N
1661067995.4,286046999.0,N
1661068015.2,286047001.2,N
1661068035.1,286046998.7,N
1661068036.0,286046998.7,N
1661068055.8,286046996.9,N
1661068075.7,286046996.6,N
1661068095.5,286046997.4,N
1661068115.3,286046999.3,N
1661068135.2,286046998.9,N
1661068155.0,286046999.2,N
1661068155.9,286046999.2,N
1661068175.8,286046999.1,N
1661068195.6,286046996.7,N
1661068215.4,286046996.5,N
1661068235.3,286046996.6,N
1661068255.1,286046996.7,N
1661068275.8,286046999.1,N
1661068295.7,286046997.5,N
1661068315.5,286046997.7,N
1661068335.4,286046997.1,N
1661068355.2,286046999.6,N
1661068375.0,286046996.6,N
1661068375.9,286046996.6,N
1661068395.8,286046999.2,N
1661068415.6,286046999.4,N
1661068435.4,286046999.3,N
1661068455.3,286046999.6,N
1661068475.1,286046999.6,N
1661068495.9,286046996.5,N
1661068515.7,286046998.7,N
1661068535.5,286046999.0,N
1661068555.4,286046998.9,N
1661068575.2,286046999.4,N
1661068595.1,286046996.9,N
1661068596.0,286046996.9,N
1661068615.8,286046996.5,N
1661068635.6,286046997.5,N
1661068655.5,286046996.7,N
1661068675.3,286046998.9,N
1661068695.1,286047000.6,N
1661068715.9,286047001.0,N
1661068735.7,286046998.1,N
1661068755.6,286046998.5,N
1661068775.4,286047000.7,N
1661068795.2,286047000.3,N
